<?xml version="1.0" encoding="UTF-8" standalone="no" ?>
<gpx xmlns="http://www.topografix.com/GPX/1/1" xmlns:xsi="http://www.w3.org/2001/XMLSchema-instance" xsi:schemaLocation="http://www.topografix.com/GPX/1/1 http://www.topografix.com/GPX/1/1/gpx.xsd" version="1.1" creator="VisuGPX - https://www.visugpx.com">
  <metadata>
    <name>46 - Porte-du-Quercy : le Boulvé</name>
    <desc><![CDATA[Cet itinéraire fait partie de la collection de EquiLiberté : www.equiliberte.org Circuit NON ACCESSIBLE aux attelages
Départ au gîte Coeur de Village https://gitecoeurdevillage.wixsite.com/porteduquercy]]></desc>
  </metadata>
  <wpt lat="44.42028" lon="1.14492">
    <ele>147.5</ele>
    <name><![CDATA[46800 Coeur de Village]]></name>
    <desc><![CDATA[ Le Bourg - Le Boulvé
46800 Porte du Quercy
06.37.96.14.10​
gitecoeurdevillage@hotmail.com
https://gitecoeurdevillage.wixsite.com/porteduquercy]]></desc>
    <type><![CDATA[hotel]]></type>
  </wpt>
  <trk>
    <name><![CDATA[46 - Porte-du-Quercy : le Boulvé sud-est :  petit parcours]]></name>
    <extensions>
      <line xmlns="http://www.topografix.com/GPX/gpx_style/0/2">
        <color>0000FF</color>
        <opacity>0.9</opacity>
        <width>5</width>
      </line>
    </extensions>
    <trkseg>
      <trkpt lat="44.41939" lon="1.14421">
        <ele>150</ele>
        <time>2021-06-01T13:48:14Z</time>
      </trkpt>
      <trkpt lat="44.41928" lon="1.14442">
        <ele>150</ele>
        <time>2021-06-01T13:48:29Z</time>
      </trkpt>
      <trkpt lat="44.41933" lon="1.14659">
        <ele>151</ele>
        <time>2021-06-01T13:50:33Z</time>
      </trkpt>
      <trkpt lat="44.41958" lon="1.14669">
        <ele>152</ele>
        <time>2021-06-01T13:50:54Z</time>
      </trkpt>
      <trkpt lat="44.41982" lon="1.14669">
        <ele>152</ele>
        <time>2021-06-01T13:51:13Z</time>
      </trkpt>
      <trkpt lat="44.41987" lon="1.14724">
        <ele>153</ele>
        <time>2021-06-01T13:51:45Z</time>
      </trkpt>
      <trkpt lat="44.41968" lon="1.14796">
        <ele>154</ele>
        <time>2021-06-01T13:52:29Z</time>
      </trkpt>
      <trkpt lat="44.41935" lon="1.15011">
        <ele>154</ele>
        <time>2021-06-01T13:54:34Z</time>
      </trkpt>
      <trkpt lat="44.41883" lon="1.15061">
        <ele>157</ele>
        <time>2021-06-01T13:55:25Z</time>
      </trkpt>
      <trkpt lat="44.41841" lon="1.15131">
        <ele>161</ele>
        <time>2021-06-01T13:56:17Z</time>
      </trkpt>
      <trkpt lat="44.41754" lon="1.1529">
        <ele>168</ele>
        <time>2021-06-01T13:58:12Z</time>
      </trkpt>
      <trkpt lat="44.41619" lon="1.15369">
        <ele>182</ele>
        <time>2021-06-01T14:00:09Z</time>
      </trkpt>
      <trkpt lat="44.41601" lon="1.15407">
        <ele>186</ele>
        <time>2021-06-01T14:00:35Z</time>
      </trkpt>
      <trkpt lat="44.41667" lon="1.15847">
        <ele>174</ele>
        <time>2021-06-01T14:04:52Z</time>
      </trkpt>
      <trkpt lat="44.41719" lon="1.15888">
        <ele>172</ele>
        <time>2021-06-01T14:05:40Z</time>
      </trkpt>
      <trkpt lat="44.41673" lon="1.15935">
        <ele>177</ele>
        <time>2021-06-01T14:06:26Z</time>
      </trkpt>
      <trkpt lat="44.41602" lon="1.16017">
        <ele>185</ele>
        <time>2021-06-01T14:07:39Z</time>
      </trkpt>
      <trkpt lat="44.41506" lon="1.16127">
        <ele>187</ele>
        <time>2021-06-01T14:09:19Z</time>
      </trkpt>
      <trkpt lat="44.41446" lon="1.16207">
        <ele>185</ele>
        <time>2021-06-01T14:10:25Z</time>
      </trkpt>
      <trkpt lat="44.41423" lon="1.16197">
        <ele>188</ele>
        <time>2021-06-01T14:10:44Z</time>
      </trkpt>
      <trkpt lat="44.41307" lon="1.16196">
        <ele>187</ele>
        <time>2021-06-01T14:12:17Z</time>
      </trkpt>
      <trkpt lat="44.41198" lon="1.16163">
        <ele>195</ele>
        <time>2021-06-01T14:13:46Z</time>
      </trkpt>
      <trkpt lat="44.41131" lon="1.1619">
        <ele>197</ele>
        <time>2021-06-01T14:14:42Z</time>
      </trkpt>
      <trkpt lat="44.40987" lon="1.16233">
        <ele>202</ele>
        <time>2021-06-01T14:16:40Z</time>
      </trkpt>
      <trkpt lat="44.40915" lon="1.16325">
        <ele>204</ele>
        <time>2021-06-01T14:17:58Z</time>
      </trkpt>
      <trkpt lat="44.4082" lon="1.16508">
        <ele>216</ele>
        <time>2021-06-01T14:20:08Z</time>
      </trkpt>
      <trkpt lat="44.40366" lon="1.16774">
        <ele>270</ele>
        <time>2021-06-01T14:26:42Z</time>
      </trkpt>
      <trkpt lat="44.40337" lon="1.16805">
        <ele>271</ele>
        <time>2021-06-01T14:27:11Z</time>
      </trkpt>
      <trkpt lat="44.40288" lon="1.16839">
        <ele>272</ele>
        <time>2021-06-01T14:27:55Z</time>
      </trkpt>
      <trkpt lat="44.40195" lon="1.16884">
        <ele>272</ele>
        <time>2021-06-01T14:29:13Z</time>
      </trkpt>
      <trkpt lat="44.40149" lon="1.16905">
        <ele>272</ele>
        <time>2021-06-01T14:29:52Z</time>
      </trkpt>
      <trkpt lat="44.40115" lon="1.16913">
        <ele>271</ele>
        <time>2021-06-01T14:30:20Z</time>
      </trkpt>
      <trkpt lat="44.40114" lon="1.16899">
        <ele>270</ele>
        <time>2021-06-01T14:30:28Z</time>
      </trkpt>
      <trkpt lat="44.40102" lon="1.16791">
        <ele>268</ele>
        <time>2021-06-01T14:31:30Z</time>
      </trkpt>
      <trkpt lat="44.40087" lon="1.16739">
        <ele>267</ele>
        <time>2021-06-01T14:32:02Z</time>
      </trkpt>
      <trkpt lat="44.40064" lon="1.16676">
        <ele>265</ele>
        <time>2021-06-01T14:32:43Z</time>
      </trkpt>
      <trkpt lat="44.40064" lon="1.16632">
        <ele>264</ele>
        <time>2021-06-01T14:33:08Z</time>
      </trkpt>
      <trkpt lat="44.40056" lon="1.16586">
        <ele>262</ele>
        <time>2021-06-01T14:33:35Z</time>
      </trkpt>
      <trkpt lat="44.40038" lon="1.16513">
        <ele>256</ele>
        <time>2021-06-01T14:34:19Z</time>
      </trkpt>
      <trkpt lat="44.40036" lon="1.16443">
        <ele>250</ele>
        <time>2021-06-01T14:34:59Z</time>
      </trkpt>
      <trkpt lat="44.40058" lon="1.16389">
        <ele>245</ele>
        <time>2021-06-01T14:35:35Z</time>
      </trkpt>
      <trkpt lat="44.40082" lon="1.16335">
        <ele>236</ele>
        <time>2021-06-01T14:36:11Z</time>
      </trkpt>
      <trkpt lat="44.40106" lon="1.16287">
        <ele>235</ele>
        <time>2021-06-01T14:36:45Z</time>
      </trkpt>
      <trkpt lat="44.40134" lon="1.16247">
        <ele>230</ele>
        <time>2021-06-01T14:37:17Z</time>
      </trkpt>
      <trkpt lat="44.4017" lon="1.16209">
        <ele>222</ele>
        <time>2021-06-01T14:37:53Z</time>
      </trkpt>
      <trkpt lat="44.40205" lon="1.16184">
        <ele>217</ele>
        <time>2021-06-01T14:38:24Z</time>
      </trkpt>
      <trkpt lat="44.40244" lon="1.16176">
        <ele>213</ele>
        <time>2021-06-01T14:38:56Z</time>
      </trkpt>
      <trkpt lat="44.40265" lon="1.16172">
        <ele>214</ele>
        <time>2021-06-01T14:39:13Z</time>
      </trkpt>
      <trkpt lat="44.40293" lon="1.16161">
        <ele>216</ele>
        <time>2021-06-01T14:39:36Z</time>
      </trkpt>
      <trkpt lat="44.40342" lon="1.16085">
        <ele>210</ele>
        <time>2021-06-01T14:40:35Z</time>
      </trkpt>
      <trkpt lat="44.40368" lon="1.16028">
        <ele>208</ele>
        <time>2021-06-01T14:41:13Z</time>
      </trkpt>
      <trkpt lat="44.40391" lon="1.15962">
        <ele>205</ele>
        <time>2021-06-01T14:41:55Z</time>
      </trkpt>
      <trkpt lat="44.40403" lon="1.15911">
        <ele>200</ele>
        <time>2021-06-01T14:42:26Z</time>
      </trkpt>
      <trkpt lat="44.40463" lon="1.15827">
        <ele>200</ele>
        <time>2021-06-01T14:43:34Z</time>
      </trkpt>
      <trkpt lat="44.40491" lon="1.15776">
        <ele>196</ele>
        <time>2021-06-01T14:44:11Z</time>
      </trkpt>
      <trkpt lat="44.40524" lon="1.15749">
        <ele>193</ele>
        <time>2021-06-01T14:44:42Z</time>
      </trkpt>
      <trkpt lat="44.40569" lon="1.15724">
        <ele>192</ele>
        <time>2021-06-01T14:45:20Z</time>
      </trkpt>
      <trkpt lat="44.40599" lon="1.15695">
        <ele>192</ele>
        <time>2021-06-01T14:45:49Z</time>
      </trkpt>
      <trkpt lat="44.40629" lon="1.15651">
        <ele>193</ele>
        <time>2021-06-01T14:46:24Z</time>
      </trkpt>
      <trkpt lat="44.40647" lon="1.15598">
        <ele>192</ele>
        <time>2021-06-01T14:46:58Z</time>
      </trkpt>
      <trkpt lat="44.40676" lon="1.15498">
        <ele>191</ele>
        <time>2021-06-01T14:48:00Z</time>
      </trkpt>
      <trkpt lat="44.40675" lon="1.15481">
        <ele>190</ele>
        <time>2021-06-01T14:48:09Z</time>
      </trkpt>
      <trkpt lat="44.40656" lon="1.15455">
        <ele>186</ele>
        <time>2021-06-01T14:48:31Z</time>
      </trkpt>
      <trkpt lat="44.40644" lon="1.15429">
        <ele>184</ele>
        <time>2021-06-01T14:48:48Z</time>
      </trkpt>
      <trkpt lat="44.40658" lon="1.15326">
        <ele>181</ele>
        <time>2021-06-01T14:49:48Z</time>
      </trkpt>
      <trkpt lat="44.40671" lon="1.15276">
        <ele>180</ele>
        <time>2021-06-01T14:50:19Z</time>
      </trkpt>
      <trkpt lat="44.40708" lon="1.15232">
        <ele>186</ele>
        <time>2021-06-01T14:50:58Z</time>
      </trkpt>
      <trkpt lat="44.40728" lon="1.15209">
        <ele>188</ele>
        <time>2021-06-01T14:51:18Z</time>
      </trkpt>
      <trkpt lat="44.40744" lon="1.15175">
        <ele>188</ele>
        <time>2021-06-01T14:51:42Z</time>
      </trkpt>
      <trkpt lat="44.4076" lon="1.1511">
        <ele>185</ele>
        <time>2021-06-01T14:52:21Z</time>
      </trkpt>
      <trkpt lat="44.40796" lon="1.14987">
        <ele>181</ele>
        <time>2021-06-01T14:53:37Z</time>
      </trkpt>
      <trkpt lat="44.40812" lon="1.14949">
        <ele>179</ele>
        <time>2021-06-01T14:54:02Z</time>
      </trkpt>
      <trkpt lat="44.40841" lon="1.14897">
        <ele>176</ele>
        <time>2021-06-01T14:54:40Z</time>
      </trkpt>
      <trkpt lat="44.40863" lon="1.14879">
        <ele>176</ele>
        <time>2021-06-01T14:55:00Z</time>
      </trkpt>
      <trkpt lat="44.40991" lon="1.14771">
        <ele>172</ele>
        <time>2021-06-01T14:57:00Z</time>
      </trkpt>
      <trkpt lat="44.4102" lon="1.14738">
        <ele>172</ele>
        <time>2021-06-01T14:57:30Z</time>
      </trkpt>
      <trkpt lat="44.41041" lon="1.14706">
        <ele>173</ele>
        <time>2021-06-01T14:57:55Z</time>
      </trkpt>
      <trkpt lat="44.41102" lon="1.14599">
        <ele>171</ele>
        <time>2021-06-01T14:59:13Z</time>
      </trkpt>
      <trkpt lat="44.41145" lon="1.1456">
        <ele>171</ele>
        <time>2021-06-01T14:59:54Z</time>
      </trkpt>
      <trkpt lat="44.41142" lon="1.14538">
        <ele>168</ele>
        <time>2021-06-01T15:00:07Z</time>
      </trkpt>
      <trkpt lat="44.41124" lon="1.14509">
        <ele>165</ele>
        <time>2021-06-01T15:00:29Z</time>
      </trkpt>
      <trkpt lat="44.411" lon="1.14469">
        <ele>163</ele>
        <time>2021-06-01T15:00:59Z</time>
      </trkpt>
      <trkpt lat="44.41102" lon="1.14446">
        <ele>163</ele>
        <time>2021-06-01T15:01:12Z</time>
      </trkpt>
      <trkpt lat="44.41113" lon="1.14422">
        <ele>162</ele>
        <time>2021-06-01T15:01:28Z</time>
      </trkpt>
      <trkpt lat="44.41107" lon="1.14409">
        <ele>162</ele>
        <time>2021-06-01T15:01:37Z</time>
      </trkpt>
      <trkpt lat="44.41132" lon="1.14352">
        <ele>161</ele>
        <time>2021-06-01T15:02:15Z</time>
      </trkpt>
      <trkpt lat="44.41179" lon="1.14282">
        <ele>161</ele>
        <time>2021-06-01T15:03:10Z</time>
      </trkpt>
      <trkpt lat="44.41248" lon="1.14226">
        <ele>159</ele>
        <time>2021-06-01T15:04:14Z</time>
      </trkpt>
      <trkpt lat="44.41316" lon="1.14184">
        <ele>159</ele>
        <time>2021-06-01T15:05:14Z</time>
      </trkpt>
      <trkpt lat="44.4138" lon="1.14175">
        <ele>158</ele>
        <time>2021-06-01T15:06:05Z</time>
      </trkpt>
      <trkpt lat="44.41416" lon="1.14167">
        <ele>157</ele>
        <time>2021-06-01T15:06:34Z</time>
      </trkpt>
      <trkpt lat="44.41438" lon="1.1417">
        <ele>157</ele>
        <time>2021-06-01T15:06:52Z</time>
      </trkpt>
      <trkpt lat="44.4152" lon="1.14175">
        <ele>156</ele>
        <time>2021-06-01T15:07:58Z</time>
      </trkpt>
      <trkpt lat="44.41577" lon="1.14141">
        <ele>159</ele>
        <time>2021-06-01T15:08:47Z</time>
      </trkpt>
      <trkpt lat="44.41633" lon="1.14113">
        <ele>160</ele>
        <time>2021-06-01T15:09:35Z</time>
      </trkpt>
      <trkpt lat="44.41691" lon="1.14084">
        <ele>160</ele>
        <time>2021-06-01T15:10:24Z</time>
      </trkpt>
      <trkpt lat="44.41711" lon="1.14121">
        <ele>159</ele>
        <time>2021-06-01T15:10:51Z</time>
      </trkpt>
      <trkpt lat="44.41767" lon="1.14223">
        <ele>155</ele>
        <time>2021-06-01T15:12:04Z</time>
      </trkpt>
      <trkpt lat="44.41829" lon="1.14343">
        <ele>151</ele>
        <time>2021-06-01T15:13:29Z</time>
      </trkpt>
      <trkpt lat="44.41868" lon="1.14415">
        <ele>149</ele>
        <time>2021-06-01T15:14:21Z</time>
      </trkpt>
      <trkpt lat="44.41929" lon="1.14468">
        <ele>150</ele>
        <time>2021-06-01T15:15:18Z</time>
      </trkpt>
      <trkpt lat="44.41928" lon="1.14441">
        <ele>150</ele>
        <time>2021-06-01T15:15:34Z</time>
      </trkpt>
      <trkpt lat="44.41938" lon="1.14422">
        <ele>150</ele>
        <time>2021-06-01T15:15:47Z</time>
      </trkpt>
    </trkseg>
  </trk>
</gpx>